Location: Biltmore Gardens
(41.6070°N, 83.4666°W)
Time: 14:00:53
(UTC+00:00)

Cosmos 1242 Rocket - Pass Details

Date: 14 July 2020
Orbit: 448 x 487 km, 81.2° (Epoch: 12 August)

Event Time Altitude Azimuth Distance (km) Brightness Sun altitude
Rises 07:59:21 0° 2° (N) 2,463 7.1 -19.0°
Reaches altitude 10° 08:01:39 10° 15° (NNE) 1,589 6.2 -18.8°
Maximum altitude 08:04:37 26° 74° (ENE) 921 4.5 -18.5°
Drops below altitude 10° 08:07:36 10° 134° (SE) 1,588 5.1 -18.1°
Enters shadow 08:08:19 - 139° (SE) 1,852 5.4 -18.1°
